Ketchikan, AK

2:21 AM AKST on January 21, 2019 (GMT -0900)
Ketchikan International

Weather History for PAKT - November, 2018

Change the Weather History Date:

Thursday, November 29, 2018

  Actual Average Record
Temperature  
Mean Temperature 43 °F -  
Max Temperature 44 °F 43 °F 57 °F (1979)
Min Temperature 42 °F 32 °F 16 °F (2005)
Degree Days  
Heating Degree Days 22    
Moisture  
Dew Point 42 °F    
Average Humidity 94    
Maximum Humidity 100    
Minimum Humidity 87    
Precipitation  
Precipitation 0.01 in - - ()
Sea Level Pressure  
Sea Level Pressure 29.71 in    
Wind  
Wind Speed 0 mph (SSE)    
Max Wind Speed 5 mph    
Max Gust Speed -    
Visibility 6 miles    
Events Rain    
Averages and records for this station are not official NWS values.
T = Trace of Precipitation, MM = Missing Value Source: NWS Daily Summary

Daily Weather History Graph

Daily Weather History Graph

Search for Another Location

Airport or City:

Astronomy

Nov. 29, 2018 Rise Set
Actual Time 7:47 AM AKST 3:23 PM AKST
Civil Twilight 7:02 AM AKST 4:07 PM AKST
Nautical Twilight 6:16 AM AKST 4:53 PM AKST
Astronomical Twilight 5:32 AM AKST 5:37 PM AKST
Moon 11:09 PM AKST (11/29) 1:00 PM AKST (11/29)
Length of Visible Light 9h 04m
Length of Day
7h 36m
Waning Gibbous, 52% of the Moon is Illuminated
Nov 29
Waning Gibbous
Nov 29
Last Quarter
Dec 6
New
Dec 15
First Quarter
Dec 22
Full

Hourly Weather History & Observations

Time (AKST) Temp. Windchill Dew Point Humidity Pressure Visibility Wind Dir Wind Speed Gust Speed Precip Events Conditions
12:53 AM 44.1 °F - 43.0 °F 96% 29.70 in 10.0 mi Calm Calm - N/A   Overcast
1:03 AM 44.1 °F - 42.1 °F 93% 29.69 in 10.0 mi Calm Calm - N/A   Overcast
1:53 AM 44.1 °F - 43.0 °F 96% 29.70 in 10.0 mi Calm Calm - N/A   Overcast
2:53 AM 43.0 °F - 41.0 °F 93% 29.70 in 10.0 mi Calm Calm - N/A   Overcast
3:53 AM 43.0 °F - 41.0 °F 93% 29.70 in 10.0 mi Calm Calm - N/A   Overcast
4:53 AM 44.1 °F - 42.1 °F 93% 29.71 in 10.0 mi Calm Calm - N/A   Overcast
5:13 AM 44.1 °F - 42.1 °F 93% 29.70 in 2.5 mi Calm Calm - N/A   Overcast
5:25 AM 44.1 °F - 42.1 °F 93% 29.71 in 1.0 mi Calm Calm - N/A   Overcast
5:46 AM 43.0 °F - 43.0 °F 100% 29.70 in 3.0 mi Calm Calm - N/A   Overcast
5:53 AM 43.0 °F - 43.0 °F 100% 29.71 in 3.0 mi Calm Calm - N/A   Overcast
6:01 AM 43.0 °F - 42.1 °F 97% 29.71 in 1.8 mi Calm Calm - N/A   Overcast
6:05 AM 43.0 °F - 41.0 °F 93% 29.71 in 1.2 mi Calm Calm - N/A   Overcast
6:51 AM 42.8 °F - 42.8 °F 100% 29.71 in 6.0 mi Calm Calm - N/A   Overcast
6:53 AM 43.0 °F - 42.1 °F 97% 29.72 in 6.0 mi Calm Calm - N/A   Overcast
7:51 AM 42.8 °F - 41.0 °F 93% 29.72 in 10.0 mi Calm Calm - N/A   Overcast
7:53 AM 42.1 °F - 41.0 °F 96% 29.72 in 10.0 mi Calm Calm - N/A   Overcast
8:30 AM 42.1 °F - 39.9 °F 92% 29.72 in 1.2 mi Calm Calm - N/A   Overcast
8:53 AM 42.1 °F - 41.0 °F 96% 29.73 in 2.0 mi Calm Calm - N/A   Overcast
9:51 AM 42.8 °F - 42.8 °F 100% 29.73 in 3.0 mi Calm Calm - N/A   Mostly Cloudy
9:53 AM 43.0 °F - 42.1 °F 97% 29.73 in 3.0 mi Calm Calm - N/A   Mostly Cloudy
10:53 AM 44.6 °F - 42.8 °F 93% 29.73 in 8.0 mi Calm Calm - N/A   Overcast
11:53 AM 44.6 °F 43.1 °F 41.0 °F 87% 29.73 in 10.0 mi ESE 3.5 mph - N/A   Overcast
12:53 PM 44.6 °F 42.2 °F 41.0 °F 87% 29.72 in 10.0 mi ESE 4.6 mph - N/A   Mostly Cloudy
1:53 PM 44.6 °F 43.1 °F 41.0 °F 87% 29.72 in 10.0 mi SSE 3.5 mph - N/A   Mostly Cloudy
2:53 PM 44.6 °F 43.1 °F 41.0 °F 87% 29.71 in 10.0 mi SE 3.5 mph - N/A   Mostly Cloudy
3:53 PM 44.6 °F - 41.0 °F 87% 29.71 in 10.0 mi Calm Calm - N/A   Overcast
4:51 PM 44.6 °F - 41.0 °F 87% 29.70 in 10.0 mi Calm Calm - N/A   Overcast
4:53 PM 44.6 °F - 41.0 °F 87% 29.70 in 10.0 mi Calm Calm - N/A   Overcast
5:53 PM 44.6 °F - 41.0 °F 87% 29.70 in 10.0 mi Calm Calm - N/A   Overcast
6:53 PM 43.0 °F 41.3 °F 41.0 °F 93% 29.70 in 10.0 mi SSE 3.5 mph - 0.00 in Rain Light Rain
7:32 PM 42.8 °F - 42.8 °F 100% 29.69 in 3.0 mi Calm Calm - N/A Rain Light Rain
7:53 PM 42.8 °F - 42.8 °F 100% 29.70 in 3.0 mi Calm Calm - N/A   Overcast
8:53 PM 43.0 °F - 41.0 °F 93% 29.69 in 10.0 mi Calm Calm - N/A   Overcast
9:53 PM 43.0 °F - 42.1 °F 97% 29.70 in 2.5 mi Calm Calm - N/A   Overcast
10:32 PM 43.0 °F - 42.1 °F 97% 29.69 in 2.5 mi Calm Calm - 0.00 in   Overcast
10:50 PM 42.8 °F - 42.8 °F 100% 29.70 in 1.8 mi Calm Calm - 0.01 in   Overcast
10:53 PM 43.0 °F - 42.1 °F 97% 29.70 in 1.2 mi Calm Calm - 0.01 in   Overcast
11:05 PM 43.0 °F - 42.1 °F 97% 29.70 in 2.0 mi Calm Calm - N/A   Overcast
11:27 PM 43.0 °F 41.3 °F 42.1 °F 97% 29.70 in 1.2 mi South 3.5 mph - N/A   Overcast
11:53 PM 43.0 °F - 41.0 °F 93% 29.70 in 10.0 mi Calm Calm - N/A   Overcast
11:57 PM 43.0 °F 41.3 °F 41.0 °F 93% 29.70 in 2.0 mi South 3.5 mph - N/A   Overcast